Location: Newark
(34.6283°N, 36.0776°E)
Time: 07:33:43
(UTC+00:00)

A-11 Canister half - Pass Details

Date: 19 September 2019
Orbit: 1527 x 1682 km, 47.3° (Epoch: 18 October)

Event Time Altitude Azimuth Distance (km) Brightness Sun altitude
Rises 02:40:39 0° 254° (WSW) 4,687 - -9.1°
Exits shadow 02:43:39 10° 258° (WSW) 3,755 10.3 -8.5°
Reaches altitude 10° 02:43:47 10° 259° (WSW) 3,718 10.3 -8.5°
Maximum altitude 02:52:59 56° 336° (NNW) 1,832 9.3 -6.6°
Drops below altitude 10° 03:02:30 10° 53° (NE) 3,836 12.1 -4.7°
Sets 03:05:47 0° 58° (ENE) 4,845 12.9 -4.0°
